Location: ?????????
(38.0736°N, 23.2119°E)
Time: 03:02:15
(UTC+00:00)

Resurs 1-4 Rocket - Pass Details

Date: 18 April 2024
Orbit: 798 x 814 km, 98.7° (Epoch: 20 May)

Event Time Altitude Azimuth Distance (km) Brightness Sun altitude
Rises 23:35:26 0° 24° (NNE) 3,330 6.2 -38.1°
Reaches altitude 10° 23:38:02 10° 34° (NE) 2,392 5.3 -37.9°
Enters shadow 23:40:30 23° 55° (NE) 1,642 4.1 -37.7°
